Regional Weather Roundup
Issued by NWS

Home | Current Version | Previous Version | Text Only | Print | Product List | Glossary On
Versions: 1 2 3 4 5 6 7 8 9 10 11 12 13 14 15 16 17 18 19 20 21 22 23 24 25 26 27 28 29 30 31 32 33 34 35 36 37 38 39 40 41 42 43 44 45 46 47 48 49 50
000
ASUS43 KDMX 240801
RWRIA

WEATHER ROUNDUP FOR IOWA
NATIONAL WEATHER SERVICE DES MOINES IA
300 AM CDT WED MAY 24 2017

NOTE: "FAIR" INDICATES FEW OR NO CLOUDS BELOW 12,000 FEET WITH NO
SIGNIFICANT WEATHER AND/OR OBSTRUCTIONS TO VISIBILITY.

* - THESE STATIONS ARE NOT NWS STATIONS...THUS NOT UNDER NWS
QUALITY CONTROL.  THEY ALSO DO NOT REPORT WEATHER SUCH
AS PRECIPITATION OR FOG.

IAZ001>003-012>014-020>022-031>034-043>046-240900-
   NORTHWEST IOWA

CITY           SKY/WX    TMP DP  RH WIND       PRES   REMARKS
CARROLL *      MOCLDY    52  50  93 N13       29.73F
CHEROKEE *     PTCLDY    46  46 100 N7        29.78F
DENISON *      CLOUDY    50  46  87 N7        29.77F
LE MARS *      CLEAR     46  46 100 N7        29.81F
ORANGE CITY *  CLEAR     46  45  93 N8        29.80F
SHELDON *      CLEAR     45  43  93 N8          N/A
SIOUX CITY     CLEAR     46  46 100 NW9       29.81F
SPENCER        CLEAR     48  45  89 N12       29.78F
STORM LAKE *   MOCLDY    48  46  93 N15       29.77S
$$

IAZ055>058-069>071-079>083-090>094-240900-
   SOUTHWEST IOWA

CITY           SKY/WX    TMP DP  RH WIND       PRES   REMARKS
ATLANTIC *     CLOUDY    50  48  93 N10       29.74F
AUDUBON *      CLOUDY    50  46  87 NW9       29.74F
CLARINDA *     CLOUDY    50  48  93 NW9       29.77F
COUNCIL BLFS * CLOUDY    50  50 100 NW10G16   29.77F
CRESTON *      LGT RAIN  48  48 100 NW8       29.73F
HARLAN  *      CLOUDY    50  48  93 N13       29.79S
LAMONI         CLEAR     44  43  96 NW7       29.71F
RED OAK *      CLOUDY    52  48  87 NW8       29.75F
SHENANDOAH *   CLOUDY    50  48  93 NW5       29.77S
$$

IAZ047>049-059>061-072>074-084-240900-
   CENTRAL IOWA

CITY           SKY/WX    TMP DP  RH WIND       PRES   REMARKS
AMES           LGT RAIN  51  50  96 N12       29.69F
ANKENY *       LGT RAIN  52  50  93 NW7G13    29.70F
BOONE *        CLOUDY    52  52 100 N13       29.70S
CHARITON *     PTCLDY    46  45  93 NW7       29.69S
DES MOINES     LGT RAIN  52  50  93 N8        29.69F
GRINNELL*      MOCLDY    46  46  97 NW3       29.68F
KNOXVILLE *    CLOUDY    48  46  93 NW8       29.67F
MARSHALLTOWN   CLOUDY    51  51 100 N10       29.67S
NEWTON *       CLOUDY    50  48  93 W5        29.67F
PELLA *        MOCLDY    47  46  97 NW5       29.69S
PERRY *        CLOUDY    52  50  93 NW13      29.72S
$$

IAZ004>006-015-016-023>025-035-036-240900-
   NORTH CENTRAL IOWA

CITY           SKY/WX    TMP DP  RH WIND       PRES   REMARKS
ALGONA *       CLOUDY    50  50 100 N10       29.75S
CLARION *      CLOUDY    52  52 100 N14       29.72S
ESTHERVILLE    PTCLDY    47  46  97 N10       29.77F
FORT DODGE *   CLOUDY    50  46  87 N7        29.74S
MASON CITY     CLOUDY    50  47  89 N14       29.73F
FOREST CITY *  CLOUDY    50  45  81 N9        29.74S
WEBSTER CITY * CLOUDY    52  50  93 N14G21    29.70S
IOWA FALLS *   CLOUDY    52  49  90 N10G17    29.70F
$$

IAZ007>011-017>019-026>030-037>042-050>054-066-240900-
   NORTHEAST IOWA

CITY           SKY/WX    TMP DP  RH WIND       PRES   REMARKS
CEDAR RAPIDS   PTCLDY    46  46 100 NW6       29.65S
CHARLES CITY * CLOUDY    52  50  93 NE14      29.70S
CLINTON *      FOG       48  48 100 CALM      29.64F VSB 1/4
DECORAH *      CLOUDY    50  48  93 N8G15     29.68F
DUBUQUE        CLOUDY    51  50  96 NE7       29.65S
MONTICELLO *   CLOUDY    52  50  93 CALM      29.65S
OELWEIN *      CLOUDY    52  52 100 N9        29.68S
WATERLOO       CLOUDY    52  49  89 NE9       29.67S
$$

IAZ064-065-067-068-078-240900-
   EAST CENTRAL IOWA

CITY           SKY/WX    TMP DP  RH WIND       PRES   REMARKS
DAVENPORT      PTCLDY    49  47  93 W5        29.64F
IOWA CITY      CLOUDY    51  47  86 NW5       29.67S
MT. PLEASANT * CLOUDY    49  48  97 W3        29.66S
MUSCATINE *    CLOUDY    50  46  87 CALM      29.65F
QUAD CITIES    CLEAR     48  45  89 CALM      29.64F
$$

IAZ062-063-075>077-085>089-095>099-240900-
   SOUTHEAST IOWA

CITY           SKY/WX    TMP DP  RH WIND       PRES   REMARKS
BURLINGTON     PTCLDY    48  47  96 NW7       29.65F
FAIRFIELD *    MOCLDY    46  45  93 W6        29.66F
FORT MADISON * PTCLDY    48  46  93 W6        29.66F
KEOKUK *       PTCLDY    48  46  93 W5        29.65F
OSKALOOSA *      N/A     44  42  95 NW5       29.67F
OTTUMWA        CLEAR     45  44  97 NW7       29.67F
WASHINGTON *   CLOUDY    50  50 100 NW3       29.67S
$$

ABBREVIATIONS USED IN REMARKS
   TC - TEMPERATURES IN CELSIUS
  WCI - WIND CHILL INDEX
   HX - HEAT INDEX
  VSB - VISIBILITY
$$




USA.gov is the U.S. government's official web portal to all federal, state and local government web resources and services.